User: anonymous   Login
Location: ?????
(31.8092°N, 35.2590°E)
Time: 09:01:08
(UTC+00:00)
Language:

Resurs 1-4 Rocket - Orbit

View from above orbital plane
View from above orbital plane
View from above satellite
View from above satellite

Ground track
Ground track

The orbit data is extracted from the following two-line orbital elements,

1 25400U 98043G   21263.82380735 -.00000008  00000-0  15018-4 0  9993
2 25400  98.6432 198.2824 0011036  75.3104 284.9298 14.25482657206600
Epoch (UTC): 20 September 2021 19:46:16
Eccentricity: 0.0011036
inclination: 98.6432°
perigee height: 799 km
apogee height: 815 km
right ascension of ascending node: 198.2824°
argument of perigee: 75.3104°
revolutions per day: 14.25482657
mean anomaly at epoch: 284.9298°
orbit number at epoch: 20660

The dashed part of the orbit path shows where the satellite is in the earth's shadow,  

DLR